| time (UTC) | temp F | wind direction | speed knots | gust knots | rain 1hr in | rain 24hr in | rain mn in | humidity % | barometer mb |
| 20260507001527 | 62 | 79 | 0.9 | 5.2 | 0.00 | 0.00 | 0.00 | 68 | 1014.1 |
| 20260507000032 | 63 | 94 | 0.9 | 5.2 | 0.00 | 0.00 | 0.00 | 67 | 1013.9 |
| 20260506234523 | 63 | 73 | 4.3 | 8.7 | 0.00 | 0.00 | 0.00 | 65 | 1013.8 |
| 20260506233023 | 64 | 54 | 0.0 | 8.7 | 0.00 | 0.00 | 0.00 | 66 | 1013.5 |
| 20260506231524 | 64 | 81 | 4.3 | 8.7 | 0.00 | 0.00 | 0.00 | 64 | 1013.4 |
| 20260506230022 | 65 | 4 | 0.9 | 6.1 | 0.00 | 0.00 | 0.00 | 65 | 1013.1 |
| 20260506224521 | 66 | 19 | 1.7 | 7.8 | 0.00 | 0.00 | 0.00 | 63 | 1013.0 |
| 20260506223020 | 67 | 331 | 0.9 | 2.6 | 0.00 | 0.00 | 0.00 | 62 | 1013.0 |
| 20260506221521 | 67 | 354 | 0.0 | 3.5 | 0.00 | 0.00 | 0.00 | 62 | 1012.8 |
| 20260506220023 | 67 | 107 | 0.9 | 5.2 | 0.00 | 0.00 | 0.00 | 63 | 1012.7 |
| 20260506214521 | 67 | 45 | 4.3 | 10.4 | 0.00 | 0.00 | 0.00 | 61 | 1012.5 |
| 20260506213018 | 69 | 50 | 0.0 | 3.5 | 0.00 | 0.00 | 0.00 | 58 | 1012.6 |
| 20260506211518 | 69 | 12 | 0.0 | 4.3 | 0.00 | 0.00 | 0.00 | 59 | 1012.9 |
| 20260506210016 | 69 | 77 | 0.9 | 3.5 | 0.00 | 0.00 | 0.00 | 59 | 1013.0 |
| 20260506204518 | 68 | 93 | 0.9 | 6.1 | 0.00 | 0.00 | 0.00 | 60 | 1013.0 |
| 20260506203011 | 67 | 78 | 1.7 | 5.2 | 0.00 | 0.00 | 0.00 | 63 | 1013.4 |
| 20260506201513 | 66 | 102 | 0.9 | 7.8 | 0.00 | 0.00 | 0.00 | 62 | 1013.5 |
| 20260506200011 | 66 | 47 | 2.6 | 7.0 | 0.00 | 0.00 | 0.00 | 62 | 1013.5 |
| 20260506194515 | 65 | 75 | 1.7 | 7.0 | 0.00 | 0.00 | 0.00 | 62 | 1013.5 |
| 20260506193009 | 66 | 240 | 2.6 | 4.3 | 0.00 | 0.00 | 0.00 | 59 | 1013.5 |
| 20260506191507 | 66 | 323 | 0.9 | 5.2 | 0.00 | 0.00 | 0.00 | 64 | 1013.0 |
| 20260506190005 | 64 | 97 | 0.9 | 9.6 | 0.00 | 0.00 | 0.00 | 64 | 1013.2 |
| 20260506184503 | 64 | 316 | 1.7 | 7.8 | 0.00 | 0.00 | 0.00 | 64 | 1013.5 |
| 20260506183101 | 63 | 319 | 1.7 | 5.2 | 0.00 | 0.00 | 0.00 | 65 | 1013.6 |
| 20260506183002 | 63 | 333 | 1.7 | 5.2 | 0.00 | 0.00 | 0.00 | 66 | 1013.6 |
| 20260506181502 | 63 | 16 | 1.7 | 6.1 | 0.00 | 0.00 | 0.00 | 64 | 1013.6 |
| 20260506180105 | 62 | 72 | 5.2 | 10.4 | 0.00 | 0.00 | 0.00 | 66 | 1013.5 |
| 20260506174557 | 61 | 325 | 2.6 | 13.0 | 0.00 | 0.00 | 0.00 | 68 | 1013.7 |
| 20260506173058 | 60 | 326 | 1.7 | 10.4 | 0.00 | 0.00 | 0.00 | 68 | 1014.0 |
| 20260506171558 | 60 | 334 | 2.6 | 10.4 | 0.00 | 0.00 | 0.00 | 69 | 1014.1 |
| 20260506170104 | 60 | 308 | 2.6 | 8.7 | 0.00 | 0.00 | 0.00 | 70 | 1014.0 |
| 20260506164551 | 57 | 94 | 2.6 | 12.2 | 0.00 | 0.00 | 0.00 | 71 | 1013.9 |
| 20260506163105 | 57 | 41 | 1.7 | 9.6 | 0.00 | 0.00 | 0.00 | 74 | 1014.2 |
| 20260506161548 | 55 | 46 | 3.5 | 9.6 | 0.00 | 0.00 | 0.00 | 74 | 1014.0 |
| 20260506160047 | 54 | 79 | 2.6 | 6.1 | 0.00 | 0.00 | 0.00 | 76 | 1013.9 |
| 20260506154605 | 54 | 116 | 1.7 | 7.8 | 0.00 | 0.00 | 0.00 | 76 | 1013.3 |
| 20260506153051 | 53 | 84 | 0.9 | 5.2 | 0.00 | 0.00 | 0.00 | 77 | 1014.5 |
| 20260506151547 | 53 | 71 | 0.9 | 4.3 | 0.00 | 0.00 | 0.00 | 77 | 1015.4 |
| 20260506150042 | 53 | 70 | 0.0 | 2.6 | 0.00 | 0.00 | 0.00 | 77 | 1015.6 |
| 20260506144539 | 52 | 53 | 0.0 | 7.8 | 0.00 | 0.00 | 0.00 | 79 | 1014.5 |
| 20260506143048 | 52 | 8 | 0.9 | 7.0 | 0.00 | 0.00 | 0.00 | 79 | 1014.2 |
| 20260506141542 | 52 | 73 | 2.6 | 7.0 | 0.00 | 0.00 | 0.00 | 79 | 1014.0 |
| 20260506140037 | 52 | 74 | 0.0 | 1.7 | 0.00 | 0.00 | 0.00 | 82 | 1014.3 |
| 20260506134535 | 51 | 272 | 0.0 | 3.5 | 0.00 | 0.00 | 0.00 | 82 | 1014.3 |
| 20260506133033 | 51 | 54 | 0.9 | 7.8 | 0.00 | 0.00 | 0.00 | 83 | 1013.7 |
| 20260506131531 | 51 | 57 | 1.7 | 8.7 | 0.00 | 0.00 | 0.00 | 84 | 1013.4 |
| 20260506130030 | 51 | 110 | 1.7 | 7.8 | 0.00 | 0.00 | 0.00 | 84 | 1013.0 |
| 20260506124528 | 51 | 85 | 0.9 | 4.3 | 0.00 | 0.00 | 0.00 | 85 | 1012.7 |
| 20260506123032 | 50 | 39 | 0.0 | 6.1 | 0.00 | 0.00 | 0.00 | 85 | 1012.7 |
| 20260506121530 | 50 | 91 | 1.7 | 6.1 | 0.00 | 0.00 | 0.00 | 85 | 1012.5 |
| 20260506120027 | 50 | 48 | 0.9 | 5.2 | 0.00 | 0.00 | 0.00 | 87 | 1012.5 |
| 20260506114532 | 51 | 332 | 0.9 | 3.5 | 0.00 | 0.00 | 0.00 | 86 | 1012.5 |
| 20260506113023 | 51 | 285 | 0.9 | 3.5 | 0.00 | 0.00 | 0.00 | 86 | 1012.5 |
| 20260506111520 | 50 | 72 | 0.9 | 6.1 | 0.00 | 0.00 | 0.00 | 85 | 1011.8 |
| 20260506110018 | 50 | 84 | 1.7 | 7.0 | 0.00 | 0.00 | 0.00 | 86 | 1011.3 |
| 20260506104518 | 51 | 336 | 1.7 | 4.3 | 0.00 | 0.00 | 0.00 | 84 | 1011.4 |
| 20260506103013 | 52 | 321 | 0.9 | 5.2 | 0.00 | 0.00 | 0.00 | 81 | 1011.0 |
| 20260506101510 | 53 | 310 | 1.7 | 4.3 | 0.00 | 0.00 | 0.00 | 79 | 1011.1 |
| 20260506100008 | 53 | 25 | 0.9 | 3.5 | 0.00 | 0.00 | 0.00 | 79 | 1010.7 |
| 20260506094504 | 53 | 4 | 0.9 | 7.0 | 0.00 | 0.00 | 0.00 | 79 | 1010.6 |
| 20260506093002 | 54 | 66 | 0.9 | 2.6 | 0.00 | 0.00 | 0.00 | 79 | 1010.2 |
| 20260506091559 | 54 | 104 | 0.0 | 3.5 | 0.00 | 0.00 | 0.00 | 78 | 1009.8 |
| 20260506090059 | 54 | 324 | 0.0 | 3.5 | 0.00 | 0.00 | 0.00 | 78 | 1009.7 |
| 20260506084555 | 55 | 307 | 0.9 | 3.5 | 0.00 | 0.00 | 0.00 | 78 | 1009.6 |
| 20260506083102 | 55 | 51 | 0.0 | 1.7 | 0.00 | 0.00 | 0.00 | 78 | 1009.4 |
| 20260506081552 | 55 | 97 | 0.0 | 2.6 | 0.00 | 0.00 | 0.00 | 77 | 1009.4 |
| 20260506073049 | 56 | 265 | 0.0 | 2.6 | 0.00 | 0.00 | 0.00 | 78 | 1009.4 |
| 20260506071551 | 56 | 93 | 0.0 | 2.6 | 0.00 | 0.00 | 0.00 | 78 | 1009.5 |
| 20260506061542 | 56 | 89 | 2.6 | 7.8 | 0.00 | 0.00 | 0.00 | 78 | 1008.7 |
| 20260506044542 | 57 | 42 | 0.9 | 5.2 | 0.00 | 0.00 | 0.00 | 78 | 1009.0 |
| 20260506043029 | 58 | 110 | 0.0 | 6.1 | 0.00 | 0.00 | 0.00 | 79 | 1009.0 |
| 20260506041528 | 58 | 328 | 0.0 | 4.3 | 0.00 | 0.00 | 0.00 | 79 | 1008.8 |
| 20260506040048 | 59 | 343 | 0.0 | 5.2 | 0.00 | 0.00 | 0.00 | 80 | 1008.8 |
| 20260506034527 | 59 | 11 | 0.0 | 2.6 | 0.00 | 0.00 | 0.00 | 79 | 1008.6 |
| 20260506033023 | 59 | 324 | 0.9 | 3.5 | 0.00 | 0.00 | 0.00 | 79 | 1008.5 |
| 20260506031538 | 59 | 337 | 0.9 | 3.5 | 0.00 | 0.00 | 0.00 | 79 | 1008.5 |
| 20260506030020 | 59 | 349 | 0.0 | 4.3 | 0.00 | 0.00 | 0.00 | 79 | 1007.8 |
| 20260506024520 | 60 | 330 | 0.9 | 2.6 | 0.00 | 0.00 | 0.00 | 79 | 1007.6 |
| 20260506023015 | 60 | 280 | 0.0 | 1.7 | 0.00 | 0.00 | 0.00 | 78 | 1007.6 |
| 20260506021513 | 61 | 268 | 0.0 | 1.7 | 0.00 | 0.00 | 0.00 | 77 | 1007.3 |
| 20260506020011 | 62 | 298 | 0.0 | 2.6 | 0.00 | 0.00 | 0.00 | 76 | 1006.7 |
| 20260506014511 | 63 | 330 | 0.9 | 3.5 | 0.00 | 0.00 | 0.00 | 75 | 1006.0 |
| 20260506013002 | 63 | 18 | 1.7 | 6.1 | 0.00 | 0.00 | 0.00 | 75 | 1005.2 |
| 20260506011607 | 64 | 333 | 0.9 | 4.3 | 0.00 | 0.00 | 0.00 | 74 | 1004.8 |
| 20260506010059 | 65 | 326 | 0.0 | 4.3 | 0.00 | 0.00 | 0.00 | 73 | 1004.9 |
| 20260506004555 | 66 | 62 | 0.9 | 4.3 | 0.00 | 0.00 | 0.00 | 72 | 1004.6 |
| 20260506003053 | 66 | 89 | 1.7 | 5.2 | 0.00 | 0.00 | 0.00 | 71 | 1004.5 |